Time,TemperatureF,DewpointF,PressureIn,WindDirection,WindDirectionDegrees,WindSpeedMPH,WindSpeedGustMPH,Humidity,HourlyPrecipIn,Conditions,Clouds,dailyrainin,SoftwareType,DateUTC
2013-02-25 00:00:00,22.7,21.4,30.07,NW,308,0.0,0.0,95,0.00,,,0.00,WUHU216DAVISVP2,2013-02-25 06:00:00,
2013-02-25 00:05:00,22.7,21.4,30.07,NW,308,0.0,0.0,95,0.00,,,0.00,WUHU216DAVISVP2,2013-02-25 06:05:00,
2013-02-25 00:10:00,22.6,21.3,30.07,NW,308,0.0,0.0,95,0.00,,,0.00,WUHU216DAVISVP2,2013-02-25 06:10:00,
2013-02-25 00:15:00,22.5,21.2,30.07,WNW,300,0.0,0.0,95,0.00,,,0.00,WUHU216DAVISVP2,2013-02-25 06:15:00,
2013-02-25 00:20:00,22.5,21.2,30.07,WNW,300,0.0,0.0,95,0.00,,,0.00,WUHU216DAVISVP2,2013-02-25 06:20:00,
2013-02-25 00:25:00,22.4,21.1,30.07,WNW,300,0.0,0.0,95,0.00,,,0.00,WUHU216DAVISVP2,2013-02-25 06:25:00,
2013-02-25 00:30:00,22.3,21.0,30.07,WNW,300,0.0,0.0,95,0.00,,,0.00,WUHU216DAVISVP2,2013-02-25 06:30:00,
2013-02-25 00:35:00,22.3,21.0,30.07,WNW,300,0.0,0.0,95,0.00,,,0.00,WUHU216DAVISVP2,2013-02-25 06:35:00,
2013-02-25 00:40:00,22.3,21.0,30.07,WNW,300,0.0,0.0,95,0.00,,,0.00,WUHU216DAVISVP2,2013-02-25 06:40:00,
2013-02-25 00:45:00,22.3,21.0,30.07,WNW,300,0.0,0.0,95,0.00,,,0.00,WUHU216DAVISVP2,2013-02-25 06:45:00,
2013-02-25 00:50:00,22.1,20.8,30.08,West,268,0.0,0.0,95,0.00,,,0.00,WUHU216DAVISVP2,2013-02-25 06:50:00,
2013-02-25 00:55:00,22.0,20.7,30.08,SW,236,0.0,0.0,95,0.00,,,0.00,WUHU216DAVISVP2,2013-02-25 06:55:00,
2013-02-25 01:00:00,21.9,20.6,30.08,SW,234,0.0,0.0,95,0.00,,,0.00,WUHU216DAVISVP2,2013-02-25 07:00:00,
2013-02-25 01:05:00,21.8,20.5,30.08,SW,236,0.0,0.0,95,0.00,,,0.00,WUHU216DAVISVP2,2013-02-25 07:05:00,
2013-02-25 01:10:00,21.8,20.5,30.08,SW,236,0.0,0.0,95,0.00,,,0.00,WUHU216DAVISVP2,2013-02-25 07:10:00,
2013-02-25 01:15:00,21.7,20.2,30.08,SW,233,0.0,0.0,94,0.00,,,0.00,WUHU216DAVISVP2,2013-02-25 07:15:00,
2013-02-25 01:20:00,21.7,20.2,30.08,SW,236,0.0,0.0,94,0.00,,,0.00,WUHU216DAVISVP2,2013-02-25 07:20:00,
2013-02-25 01:25:00,21.6,20.1,30.08,SW,218,0.0,1.0,94,0.00,,,0.00,WUHU216DAVISVP2,2013-02-25 07:25:00,
2013-02-25 01:30:00,21.5,20.0,30.08,SW,232,0.0,1.0,94,0.00,,,0.00,WUHU216DAVISVP2,2013-02-25 07:30:00,
2013-02-25 01:35:00,21.5,20.0,30.08,SW,233,0.0,1.0,94,0.00,,,0.00,WUHU216DAVISVP2,2013-02-25 07:35:00,
2013-02-25 01:40:00,21.3,19.8,30.08,SW,233,0.0,1.0,94,0.00,,,0.00,WUHU216DAVISVP2,2013-02-25 07:40:00,
2013-02-25 01:45:00,21.2,19.7,30.08,SW,233,0.0,0.0,94,0.00,,,0.00,WUHU216DAVISVP2,2013-02-25 07:45:00,
2013-02-25 01:50:00,21.1,19.6,30.08,WSW,255,0.0,0.0,94,0.00,,,0.00,WUHU216DAVISVP2,2013-02-25 07:50:00,
2013-02-25 01:55:00,20.9,19.4,30.08,WSW,255,0.0,0.0,94,0.00,,,0.00,WUHU216DAVISVP2,2013-02-25 07:55:00,
2013-02-25 02:00:00,20.8,19.3,30.07,WSW,255,0.0,0.0,94,0.00,,,0.00,WUHU216DAVISVP2,2013-02-25 08:00:00,
2013-02-25 02:05:00,20.8,19.3,30.07,WSW,255,0.0,0.0,94,0.00,,,0.00,WUHU216DAVISVP2,2013-02-25 08:05:00,
2013-02-25 02:10:00,20.7,19.2,30.06,WSW,255,0.0,0.0,94,0.00,,,0.00,WUHU216DAVISVP2,2013-02-25 08:10:00,
2013-02-25 02:15:00,20.5,19.0,30.07,WSW,255,0.0,0.0,94,0.00,,,0.00,WUHU216DAVISVP2,2013-02-25 08:15:00,
2013-02-25 02:20:00,20.5,19.0,30.06,WSW,255,0.0,0.0,94,0.00,,,0.00,WUHU216DAVISVP2,2013-02-25 08:20:00,
2013-02-25 02:25:00,20.4,18.9,30.06,WSW,255,0.0,0.0,94,0.00,,,0.00,WUHU216DAVISVP2,2013-02-25 08:25:00,
2013-02-25 02:30:00,20.3,18.8,30.06,WSW,255,0.0,0.0,94,0.00,,,0.00,WUHU216DAVISVP2,2013-02-25 08:30:00,
2013-02-25 02:35:00,20.2,18.7,30.06,WSW,258,0.0,0.0,94,0.00,,,0.00,WUHU216DAVISVP2,2013-02-25 08:35:00,
2013-02-25 02:40:00,20.1,18.6,30.06,NW,308,0.0,1.0,94,0.00,,,0.00,WUHU216DAVISVP2,2013-02-25 08:40:00,
2013-02-25 02:45:00,19.9,18.2,30.06,WNW,291,1.0,2.0,93,0.00,,,0.00,WUHU216DAVISVP2,2013-02-25 08:45:00,
2013-02-25 02:50:00,19.8,18.3,30.06,NW,324,0.0,2.0,94,0.00,,,0.00,WUHU216DAVISVP2,2013-02-25 08:50:00,
2013-02-25 02:55:00,19.8,18.4,30.06,NW,310,0.0,2.0,94,0.00,,,0.00,WUHU216DAVISVP2,2013-02-25 08:55:00,
2013-02-25 03:00:00,19.8,18.4,30.06,NW,310,0.0,2.0,94,0.00,,,0.00,WUHU216DAVISVP2,2013-02-25 09:00:00,
2013-02-25 03:05:00,19.7,18.3,30.06,NW,310,0.0,1.0,94,0.00,,,0.00,WUHU216DAVISVP2,2013-02-25 09:05:00,
2013-02-25 03:10:00,19.8,18.4,30.06,NW,309,0.0,0.0,94,0.00,,,0.00,WUHU216DAVISVP2,2013-02-25 09:10:00,
2013-02-25 03:15:00,19.8,18.4,30.06,NW,309,0.0,0.0,94,0.00,,,0.00,WUHU216DAVISVP2,2013-02-25 09:15:00,
2013-02-25 03:20:00,19.7,18.3,30.05,West,277,0.0,0.0,94,0.00,,,0.00,WUHU216DAVISVP2,2013-02-25 09:20:00,
2013-02-25 03:25:00,19.6,18.2,30.06,West,277,0.0,0.0,94,0.00,,,0.00,WUHU216DAVISVP2,2013-02-25 09:25:00,
2013-02-25 03:30:00,19.6,17.9,30.05,WSW,255,0.0,0.0,93,0.00,,,0.00,WUHU216DAVISVP2,2013-02-25 09:30:00,
2013-02-25 03:35:00,19.6,18.2,30.05,WSW,255,0.0,0.0,94,0.00,,,0.00,WUHU216DAVISVP2,2013-02-25 09:35:00,
2013-02-25 03:40:00,19.5,18.0,30.05,WSW,255,0.0,0.0,94,0.00,,,0.00,WUHU216DAVISVP2,2013-02-25 09:40:00,
2013-02-25 03:45:00,19.5,17.8,30.06,WSW,255,0.0,0.0,93,0.00,,,0.00,WUHU216DAVISVP2,2013-02-25 09:45:00,
2013-02-25 03:49:00,19.4,17.7,30.06,WSW,256,0.0,0.0,93,0.00,,,0.00,WUHU216DAVISVP2,2013-02-25 09:49:00,
2013-02-25 03:54:00,19.2,17.5,30.06,WSW,255,0.0,0.0,93,0.00,,,0.00,WUHU216DAVISVP2,2013-02-25 09:54:00,
2013-02-25 03:59:00,19.2,17.5,30.06,WSW,255,0.0,0.0,93,0.00,,,0.00,WUHU216DAVISVP2,2013-02-25 09:59:00,
2013-02-25 04:00:00,19.2,17.5,30.06,North,0,0.0,0.0,93,0.00,,,0.00,WUHU216DAVISVP2,2013-02-25 10:00:00,
2013-02-25 04:04:00,19.0,17.3,30.06,WSW,255,0.0,0.0,93,0.00,,,0.00,WUHU216DAVISVP2,2013-02-25 10:04:00,
2013-02-25 04:09:00,18.8,17.1,30.06,WSW,255,0.0,0.0,93,0.00,,,0.00,WUHU216DAVISVP2,2013-02-25 10:09:00,
2013-02-25 04:14:00,18.8,17.1,30.06,WSW,256,0.0,0.0,93,0.00,,,0.00,WUHU216DAVISVP2,2013-02-25 10:14:00,
2013-02-25 04:19:00,18.7,17.0,30.06,WSW,255,0.0,0.0,93,0.00,,,0.00,WUHU216DAVISVP2,2013-02-25 10:19:00,
2013-02-25 04:24:00,18.6,16.9,30.06,WSW,255,0.0,0.0,93,0.00,,,0.00,WUHU216DAVISVP2,2013-02-25 10:24:00,
2013-02-25 04:29:00,18.3,16.6,30.07,WSW,252,0.0,0.0,93,0.00,,,0.00,WUHU216DAVISVP2,2013-02-25 10:29:00,
2013-02-25 04:30:00,18.3,16.6,30.07,North,0,0.0,0.0,93,0.00,,,0.00,WUHU216DAVISVP2,2013-02-25 10:30:00,
2013-02-25 04:34:00,18.2,16.5,30.07,WSW,252,0.0,0.0,93,0.00,,,0.00,WUHU216DAVISVP2,2013-02-25 10:34:00,
2013-02-25 04:39:00,18.2,16.5,30.07,WSW,252,0.0,0.0,93,0.00,,,0.00,WUHU216DAVISVP2,2013-02-25 10:39:00,
2013-02-25 04:44:00,18.2,16.5,30.07,WSW,252,0.0,0.0,93,0.00,,,0.00,WUHU216DAVISVP2,2013-02-25 10:44:00,
2013-02-25 04:49:00,18.3,16.6,30.07,WSW,252,0.0,0.0,93,0.00,,,0.00,WUHU216DAVISVP2,2013-02-25 10:49:00,
2013-02-25 04:54:00,18.3,16.6,30.07,WSW,252,0.0,0.0,93,0.00,,,0.00,WUHU216DAVISVP2,2013-02-25 10:54:00,
2013-02-25 04:59:00,18.5,16.8,30.07,WSW,252,0.0,0.0,93,0.00,,,0.00,WUHU216DAVISVP2,2013-02-25 10:59:00,
2013-02-25 05:00:00,18.5,16.8,30.07,North,0,0.0,0.0,93,0.00,,,0.00,WUHU216DAVISVP2,2013-02-25 11:00:00,
2013-02-25 05:04:00,18.7,17.2,30.07,WSW,252,0.0,0.0,94,0.00,,,0.00,WUHU216DAVISVP2,2013-02-25 11:04:00,
2013-02-25 05:09:00,18.9,17.4,30.06,SW,214,0.0,0.0,94,0.00,,,0.00,WUHU216DAVISVP2,2013-02-25 11:09:00,
2013-02-25 05:14:00,19.0,17.3,30.06,SW,214,0.0,0.0,93,0.00,,,0.00,WUHU216DAVISVP2,2013-02-25 11:14:00,
2013-02-25 05:19:00,19.2,17.5,30.06,WNW,296,0.0,0.0,93,0.00,,,0.00,WUHU216DAVISVP2,2013-02-25 11:19:00,
2013-02-25 05:24:00,19.3,17.8,30.07,WNW,300,0.0,0.0,94,0.00,,,0.00,WUHU216DAVISVP2,2013-02-25 11:24:00,
2013-02-25 05:29:00,19.6,18.2,30.06,WNW,300,0.0,0.0,94,0.00,,,0.00,WUHU216DAVISVP2,2013-02-25 11:29:00,
2013-02-25 05:30:00,19.6,18.2,30.06,North,0,0.0,0.0,94,0.00,,,0.00,WUHU216DAVISVP2,2013-02-25 11:30:00,
2013-02-25 05:34:00,19.7,18.0,30.06,WNW,300,0.0,0.0,93,0.00,,,0.00,WUHU216DAVISVP2,2013-02-25 11:34:00,
2013-02-25 05:39:00,19.7,18.0,30.06,WNW,300,0.0,0.0,93,0.00,,,0.00,WUHU216DAVISVP2,2013-02-25 11:39:00,
2013-02-25 05:44:00,19.7,18.0,30.06,WNW,300,0.0,0.0,93,0.00,,,0.00,WUHU216DAVISVP2,2013-02-25 11:44:00,
2013-02-25 05:49:00,19.6,17.9,30.05,WNW,300,0.0,0.0,93,0.00,,,0.00,WUHU216DAVISVP2,2013-02-25 11:49:00,
2013-02-25 05:54:00,19.5,17.8,30.05,WNW,300,0.0,0.0,93,0.00,,,0.00,WUHU216DAVISVP2,2013-02-25 11:54:00,
2013-02-25 05:59:00,19.3,17.6,30.06,WNW,300,0.0,0.0,93,0.00,,,0.00,WUHU216DAVISVP2,2013-02-25 11:59:00,
2013-02-25 06:00:00,19.3,17.6,30.06,North,0,0.0,0.0,93,0.00,,,0.00,WUHU216DAVISVP2,2013-02-25 12:00:00,
2013-02-25 06:04:00,19.2,17.5,30.06,WNW,300,0.0,0.0,93,0.00,,,0.00,WUHU216DAVISVP2,2013-02-25 12:04:00,
2013-02-25 06:09:00,19.2,17.5,30.05,NNW,328,0.0,0.0,93,0.00,,,0.00,WUHU216DAVISVP2,2013-02-25 12:09:00,
2013-02-25 06:14:00,19.3,17.6,30.05,NNW,327,0.0,0.0,93,0.00,,,0.00,WUHU216DAVISVP2,2013-02-25 12:14:00,
2013-02-25 06:19:00,19.5,17.8,30.05,NW,325,0.0,0.0,93,0.00,,,0.00,WUHU216DAVISVP2,2013-02-25 12:19:00,
2013-02-25 06:24:00,19.5,17.8,30.05,NW,325,0.0,0.0,93,0.00,,,0.00,WUHU216DAVISVP2,2013-02-25 12:24:00,
2013-02-25 06:29:00,19.7,18.2,30.06,WNW,303,0.0,1.0,94,0.00,,,0.00,WUHU216DAVISVP2,2013-02-25 12:29:00,
2013-02-25 06:30:00,19.7,18.3,30.06,NW,315,0.0,1.0,94,0.00,,,0.00,WUHU216DAVISVP2,2013-02-25 12:30:00,
2013-02-25 06:34:00,20.1,18.6,30.06,NW,312,0.0,1.0,94,0.00,,,0.00,WUHU216DAVISVP2,2013-02-25 12:34:00,
2013-02-25 06:39:00,20.4,18.9,30.07,NW,312,0.0,1.0,94,0.00,,,0.00,WUHU216DAVISVP2,2013-02-25 12:39:00,
2013-02-25 06:44:00,20.8,19.3,30.07,WNW,290,0.0,1.0,94,0.00,,,0.00,WUHU216DAVISVP2,2013-02-25 12:44:00,
2013-02-25 06:49:00,20.9,19.4,30.08,West,268,0.0,1.0,94,0.00,,,0.00,WUHU216DAVISVP2,2013-02-25 12:49:00,
2013-02-25 06:54:00,21.0,19.5,30.08,West,268,0.0,1.0,94,0.00,,,0.00,WUHU216DAVISVP2,2013-02-25 12:54:00,
2013-02-25 06:59:00,21.1,19.6,30.08,West,268,0.0,1.0,94,0.00,,,0.00,WUHU216DAVISVP2,2013-02-25 12:59:00,
2013-02-25 07:00:00,21.1,19.6,30.08,NW,315,0.0,1.0,94,0.00,,,0.00,WUHU216DAVISVP2,2013-02-25 13:00:00,
2013-02-25 07:04:00,21.1,19.6,30.09,SSW,205,0.0,1.0,94,0.00,,,0.00,WUHU216DAVISVP2,2013-02-25 13:04:00,
2013-02-25 07:09:00,21.2,19.7,30.08,SSW,206,0.0,0.0,94,0.00,,,0.00,WUHU216DAVISVP2,2013-02-25 13:09:00,
2013-02-25 07:14:00,21.3,19.5,30.08,SSW,212,0.0,0.0,93,0.00,,,0.00,WUHU216DAVISVP2,2013-02-25 13:14:00,
2013-02-25 07:19:00,21.2,19.4,30.08,SSW,212,0.0,0.0,93,0.00,,,0.00,WUHU216DAVISVP2,2013-02-25 13:19:00,
2013-02-25 07:24:00,21.3,19.5,30.08,SSW,212,0.0,0.0,93,0.00,,,0.00,WUHU216DAVISVP2,2013-02-25 13:24:00,
2013-02-25 07:29:00,21.4,19.6,30.09,SSW,212,0.0,0.0,93,0.00,,,0.00,WUHU216DAVISVP2,2013-02-25 13:29:00,
2013-02-25 07:30:00,21.4,19.7,30.09,North,0,0.0,0.0,93,0.00,,,0.00,WUHU216DAVISVP2,2013-02-25 13:30:00,
2013-02-25 07:35:00,21.5,19.7,30.09,SSW,211,0.0,0.0,93,0.00,,,0.00,WUHU216DAVISVP2,2013-02-25 13:35:00,
2013-02-25 07:40:00,21.5,19.7,30.08,South,181,0.0,0.0,93,0.00,,,0.00,WUHU216DAVISVP2,2013-02-25 13:40:00,
2013-02-25 07:45:00,21.6,19.8,30.08,South,182,0.0,0.0,93,0.00,,,0.00,WUHU216DAVISVP2,2013-02-25 13:45:00,
2013-02-25 07:50:00,21.6,19.8,30.08,South,182,0.0,0.0,93,0.00,,,0.00,WUHU216DAVISVP2,2013-02-25 13:50:00,
2013-02-25 07:55:00,21.6,19.8,30.08,South,182,0.0,0.0,93,0.00,,,0.00,WUHU216DAVISVP2,2013-02-25 13:55:00,
2013-02-25 08:00:00,21.7,19.9,30.08,South,182,0.0,0.0,93,0.00,,,0.00,WUHU216DAVISVP2,2013-02-25 14:00:00,
2013-02-25 08:05:00,21.8,20.1,30.09,South,182,0.0,0.0,93,0.00,,,0.00,WUHU216DAVISVP2,2013-02-25 14:05:00,
2013-02-25 08:10:00,21.8,20.0,30.09,South,182,0.0,0.0,93,0.00,,,0.00,WUHU216DAVISVP2,2013-02-25 14:10:00,
2013-02-25 08:15:00,21.9,20.2,30.09,South,182,0.0,0.0,93,0.00,,,0.00,WUHU216DAVISVP2,2013-02-25 14:15:00,
2013-02-25 08:20:00,21.9,20.2,30.09,South,182,0.0,0.0,93,0.00,,,0.00,WUHU216DAVISVP2,2013-02-25 14:20:00,
2013-02-25 08:25:00,21.9,20.2,30.09,South,182,0.0,0.0,93,0.00,,,0.00,WUHU216DAVISVP2,2013-02-25 14:25:00,
2013-02-25 08:30:00,22.0,20.3,30.08,South,182,0.0,0.0,93,0.00,,,0.00,WUHU216DAVISVP2,2013-02-25 14:30:00,
2013-02-25 08:35:00,22.4,20.7,30.08,South,182,0.0,0.0,93,0.00,,,0.00,WUHU216DAVISVP2,2013-02-25 14:35:00,
2013-02-25 08:40:00,22.5,20.8,30.08,NW,314,0.0,1.0,93,0.00,,,0.00,WUHU216DAVISVP2,2013-02-25 14:40:00,
2013-02-25 08:45:00,22.7,21.0,30.07,NNW,328,0.0,1.0,93,0.00,,,0.00,WUHU216DAVISVP2,2013-02-25 14:45:00,
2013-02-25 08:50:00,22.6,20.8,30.08,WNW,302,0.0,2.0,93,0.00,,,0.00,WUHU216DAVISVP2,2013-02-25 14:50:00,
2013-02-25 08:55:00,22.8,21.1,30.08,West,278,0.0,2.0,93,0.00,,,0.00,WUHU216DAVISVP2,2013-02-25 14:55:00,
2013-02-25 09:00:00,23.1,21.3,30.08,NW,304,0.0,2.0,93,0.00,,,0.00,WUHU216DAVISVP2,2013-02-25 15:00:00,
2013-02-25 09:05:00,23.5,21.7,30.08,NW,311,0.0,1.0,93,0.00,,,0.00,WUHU216DAVISVP2,2013-02-25 15:05:00,
2013-02-25 09:10:00,23.9,22.1,30.08,NW,311,0.0,1.0,93,0.00,,,0.00,WUHU216DAVISVP2,2013-02-25 15:10:00,
2013-02-25 09:15:00,24.1,22.4,30.08,NW,304,1.0,2.0,93,0.00,,,0.00,WUHU216DAVISVP2,2013-02-25 15:15:00,
2013-02-25 09:20:00,24.3,22.5,30.08,NNW,346,0.0,2.0,93,0.00,,,0.00,WUHU216DAVISVP2,2013-02-25 15:20:00,
2013-02-25 09:25:00,24.8,23.0,30.08,NNW,346,0.0,2.0,93,0.00,,,0.00,WUHU216DAVISVP2,2013-02-25 15:25:00,
2013-02-25 09:30:00,25.1,23.3,30.08,NNW,328,0.0,2.0,93,0.00,,,0.00,WUHU216DAVISVP2,2013-02-25 15:30:00,
2013-02-25 09:35:00,25.7,23.9,30.09,WSW,249,0.0,1.0,93,0.00,,,0.00,WUHU216DAVISVP2,2013-02-25 15:35:00,
2013-02-25 09:40:00,26.1,24.0,30.09,WSW,249,0.0,1.0,92,0.00,,,0.00,WUHU216DAVISVP2,2013-02-25 15:40:00,
2013-02-25 09:45:00,26.6,24.3,30.09,NW,321,1.0,2.0,91,0.00,,,0.00,WUHU216DAVISVP2,2013-02-25 15:45:00,
2013-02-25 09:50:00,26.7,23.6,30.09,West,281,0.0,2.0,88,0.00,,,0.00,WUHU216DAVISVP2,2013-02-25 15:50:00,
2013-02-25 09:55:00,26.9,23.2,30.09,NNW,328,1.0,2.0,86,0.00,,,0.00,WUHU216DAVISVP2,2013-02-25 15:55:00,
2013-02-25 10:00:00,26.9,23.0,30.09,NW,316,1.0,2.0,85,0.00,,,0.00,WUHU216DAVISVP2,2013-02-25 16:00:00,
2013-02-25 10:05:00,26.7,22.5,30.09,NW,317,1.0,2.0,84,0.00,,,0.00,WUHU216DAVISVP2,2013-02-25 16:05:00,
2013-02-25 10:10:00,26.7,22.5,30.09,WNW,287,1.0,2.0,84,0.00,,,0.00,WUHU216DAVISVP2,2013-02-25 16:10:00,
2013-02-25 10:15:00,27.1,22.9,30.09,WNW,297,0.0,2.0,84,0.00,,,0.00,WUHU216DAVISVP2,2013-02-25 16:15:00,
2013-02-25 10:20:00,27.5,23.0,30.09,West,271,0.0,2.0,83,0.00,,,0.00,WUHU216DAVISVP2,2013-02-25 16:20:00,
2013-02-25 10:25:00,27.7,23.2,30.09,NNW,333,3.0,3.0,83,0.00,,,0.00,WUHU216DAVISVP2,2013-02-25 16:25:00,
2013-02-25 10:30:00,27.8,23.3,30.09,NNW,330,1.0,4.0,83,0.00,,,0.00,WUHU216DAVISVP2,2013-02-25 16:30:00,
2013-02-25 10:35:00,27.9,23.1,30.09,WNW,301,1.0,4.0,82,0.00,,,0.00,WUHU216DAVISVP2,2013-02-25 16:35:00,
2013-02-25 10:40:00,28.0,23.5,30.08,WNW,303,3.0,4.0,83,0.00,,,0.00,WUHU216DAVISVP2,2013-02-25 16:40:00,
2013-02-25 10:45:00,28.2,23.4,30.08,NNE,32,1.0,4.0,82,0.00,,,0.00,WUHU216DAVISVP2,2013-02-25 16:45:00,
2013-02-25 10:50:00,28.2,23.4,30.08,NNW,335,2.0,4.0,82,0.00,,,0.00,WUHU216DAVISVP2,2013-02-25 16:50:00,
2013-02-25 10:55:00,28.1,23.3,30.08,North,3,1.0,3.0,82,0.00,,,0.00,WUHU216DAVISVP2,2013-02-25 16:55:00,
2013-02-25 11:00:00,28.3,23.5,30.08,NNE,27,0.0,3.0,82,0.00,,,0.00,WUHU216DAVISVP2,2013-02-25 17:00:00,
2013-02-25 11:05:00,28.2,23.4,30.08,NW,310,2.0,3.0,82,0.00,,,0.00,WUHU216DAVISVP2,2013-02-25 17:05:00,
2013-02-25 11:10:00,28.1,23.3,30.07,NNE,33,2.0,3.0,82,0.00,,,0.00,WUHU216DAVISVP2,2013-02-25 17:10:00,
2013-02-25 11:15:00,28.5,23.4,30.07,North,11,1.0,4.0,81,0.00,,,0.00,WUHU216DAVISVP2,2013-02-25 17:15:00,
2013-02-25 11:20:00,28.7,23.6,30.07,West,278,3.0,4.0,81,0.00,,,0.00,WUHU216DAVISVP2,2013-02-25 17:20:00,
2013-02-25 11:25:00,28.8,23.7,30.07,NNW,328,2.0,5.0,81,0.00,,,0.00,WUHU216DAVISVP2,2013-02-25 17:25:00,
2013-02-25 11:30:00,28.8,23.7,30.07,NNW,329,2.0,6.0,81,0.00,,,0.00,WUHU216DAVISVP2,2013-02-25 17:30:00,
2013-02-25 11:35:00,28.9,23.5,30.07,NNE,19,2.0,6.0,80,0.00,,,0.00,WUHU216DAVISVP2,2013-02-25 17:35:00,
2013-02-25 11:40:00,28.9,23.5,30.07,North,353,4.0,6.0,80,0.00,,,0.00,WUHU216DAVISVP2,2013-02-25 17:40:00,
2013-02-25 11:45:00,28.8,23.4,30.07,NW,324,3.0,6.0,80,0.00,,,0.00,WUHU216DAVISVP2,2013-02-25 17:45:00,
2013-02-25 11:50:00,29.0,23.6,30.07,North,10,2.0,5.0,80,0.00,,,0.00,WUHU216DAVISVP2,2013-02-25 17:50:00,
2013-02-25 11:55:00,29.2,23.5,30.07,NW,321,1.0,5.0,79,0.00,,,0.00,WUHU216DAVISVP2,2013-02-25 17:55:00,
2013-02-25 12:00:00,29.0,23.3,30.08,NNE,20,3.0,5.0,79,0.00,,,0.00,WUHU216DAVISVP2,2013-02-25 18:00:00,
2013-02-25 12:05:00,29.2,23.5,30.08,North,359,2.0,5.0,79,0.00,,,0.00,WUHU216DAVISVP2,2013-02-25 18:05:00,
2013-02-25 12:10:00,29.4,23.7,30.08,NNE,15,1.0,5.0,79,0.00,,,0.00,WUHU216DAVISVP2,2013-02-25 18:10:00,
2013-02-25 12:15:00,29.5,23.5,30.08,NNE,18,2.0,5.0,78,0.00,,,0.00,WUHU216DAVISVP2,2013-02-25 18:15:00,
2013-02-25 12:20:00,29.3,23.3,30.07,NW,311,3.0,5.0,78,0.00,,,0.00,WUHU216DAVISVP2,2013-02-25 18:20:00,
2013-02-25 12:25:00,29.2,23.5,30.07,NNW,333,3.0,5.0,79,0.00,,,0.00,WUHU216DAVISVP2,2013-02-25 18:25:00,
2013-02-25 12:30:00,29.4,23.7,30.06,NNW,336,1.0,5.0,79,0.00,,,0.00,WUHU216DAVISVP2,2013-02-25 18:30:00,
2013-02-25 12:35:00,29.7,24.0,30.06,WNW,302,1.0,5.0,79,0.00,,,0.00,WUHU216DAVISVP2,2013-02-25 18:35:00,
2013-02-25 12:40:00,29.8,23.8,30.06,West,267,0.0,5.0,78,0.00,,,0.00,WUHU216DAVISVP2,2013-02-25 18:40:00,
2013-02-25 12:45:00,29.7,23.7,30.06,WNW,288,1.0,5.0,78,0.00,,,0.00,WUHU216DAVISVP2,2013-02-25 18:45:00,
2013-02-25 12:50:00,29.9,23.9,30.06,West,270,1.0,5.0,78,0.00,,,0.00,WUHU216DAVISVP2,2013-02-25 18:50:00,
2013-02-25 12:55:00,30.2,24.2,30.05,North,1,0.0,4.0,78,0.00,,,0.00,WUHU216DAVISVP2,2013-02-25 18:55:00,
2013-02-25 13:00:00,30.7,24.4,30.05,North,351,1.0,4.0,77,0.00,,,0.00,WUHU216DAVISVP2,2013-02-25 19:00:00,
2013-02-25 13:05:00,30.4,24.1,30.05,NE,43,0.0,3.0,77,0.00,,,0.00,WUHU216DAVISVP2,2013-02-25 19:05:00,
2013-02-25 13:10:00,30.3,24.0,30.04,WNW,303,1.0,4.0,77,0.00,,,0.00,WUHU216DAVISVP2,2013-02-25 19:10:00,
2013-02-25 13:15:00,30.3,24.3,30.04,NW,325,3.0,6.0,78,0.00,,,0.00,WUHU216DAVISVP2,2013-02-25 19:15:00,
2013-02-25 13:20:00,30.1,24.1,30.04,WNW,293,4.0,6.0,78,0.00,,,0.00,WUHU216DAVISVP2,2013-02-25 19:20:00,
2013-02-25 13:25:00,29.5,23.8,30.04,NNW,328,3.0,8.0,79,0.00,,,0.00,WUHU216DAVISVP2,2013-02-25 19:25:00,
2013-02-25 13:30:00,29.7,24.0,30.03,NNW,336,1.0,8.0,79,0.00,,,0.00,WUHU216DAVISVP2,2013-02-25 19:30:00,
2013-02-25 13:35:00,29.5,23.8,30.03,North,359,3.0,8.0,79,0.00,,,0.00,WUHU216DAVISVP2,2013-02-25 19:35:00,
2013-02-25 13:40:00,29.9,24.2,30.03,NNE,20,1.0,8.0,79,0.00,,,0.00,WUHU216DAVISVP2,2013-02-25 19:40:00,
2013-02-25 13:45:00,29.7,23.7,30.03,North,7,4.0,6.0,78,0.00,,,0.00,WUHU216DAVISVP2,2013-02-25 19:45:00,
2013-02-25 13:50:00,29.4,23.4,30.03,NE,36,1.0,6.0,78,0.00,,,0.00,WUHU216DAVISVP2,2013-02-25 19:50:00,
2013-02-25 13:55:00,29.0,23.0,30.03,ENE,68,2.0,6.0,78,0.00,,,0.00,WUHU216DAVISVP2,2013-02-25 19:55:00,
2013-02-25 14:00:00,29.2,23.5,30.03,North,1,2.0,6.0,79,0.00,,,0.00,WUHU216DAVISVP2,2013-02-25 20:00:00,
2013-02-25 14:05:00,29.6,23.9,30.03,NNW,348,2.0,5.0,79,0.00,,,0.00,WUHU216DAVISVP2,2013-02-25 20:05:00,
2013-02-25 14:10:00,29.4,23.1,30.03,ENE,59,2.0,5.0,77,0.00,,,0.00,WUHU216DAVISVP2,2013-02-25 20:10:00,
2013-02-25 14:15:00,28.8,23.1,30.03,NW,312,3.0,5.0,79,0.00,,,0.00,WUHU216DAVISVP2,2013-02-25 20:15:00,
2013-02-25 14:20:00,28.7,23.6,30.03,NE,35,1.0,5.0,81,0.00,,,0.00,WUHU216DAVISVP2,2013-02-25 20:20:00,
2013-02-25 14:25:00,28.9,23.5,30.02,NNW,339,2.0,5.0,80,0.00,,,0.00,WUHU216DAVISVP2,2013-02-25 20:25:00,
2013-02-25 14:30:00,28.5,23.1,30.02,NE,48,3.0,8.0,80,0.00,,,0.00,WUHU216DAVISVP2,2013-02-25 20:30:00,
2013-02-25 14:35:00,28.4,23.3,30.02,NW,314,2.0,8.0,81,0.00,,,0.00,WUHU216DAVISVP2,2013-02-25 20:35:00,
2013-02-25 14:40:00,28.4,23.3,30.03,NE,38,1.0,8.0,81,0.00,,,0.00,WUHU216DAVISVP2,2013-02-25 20:40:00,
2013-02-25 14:45:00,28.5,23.4,30.03,North,1,1.0,8.0,81,0.00,,,0.00,WUHU216DAVISVP2,2013-02-25 20:45:00,
2013-02-25 14:50:00,28.1,23.0,30.03,NNW,328,2.0,5.0,81,0.00,,,0.00,WUHU216DAVISVP2,2013-02-25 20:50:00,
2013-02-25 14:55:00,28.0,23.2,30.03,NNW,345,1.0,5.0,82,0.00,,,0.00,WUHU216DAVISVP2,2013-02-25 20:55:00,
2013-02-25 15:00:00,27.9,22.8,30.01,NE,34,2.0,5.0,81,0.00,,,0.00,WUHU216DAVISVP2,2013-02-25 21:00:00,
2013-02-25 15:05:00,27.7,22.9,30.01,NE,46,2.0,6.0,82,0.00,,,0.00,WUHU216DAVISVP2,2013-02-25 21:05:00,
2013-02-25 15:10:00,27.8,23.3,30.02,NW,319,4.0,6.0,83,0.00,,,0.00,WUHU216DAVISVP2,2013-02-25 21:10:00,
2013-02-25 15:15:00,27.7,23.2,30.03,NNE,13,1.0,6.0,83,0.00,,,0.00,WUHU216DAVISVP2,2013-02-25 21:15:00,
2013-02-25 15:20:00,27.5,23.0,30.03,NE,46,1.0,5.0,83,0.00,,,0.00,WUHU216DAVISVP2,2013-02-25 21:20:00,
2013-02-25 15:25:00,27.5,23.3,30.03,NNE,12,0.0,5.0,84,0.00,,,0.00,WUHU216DAVISVP2,2013-02-25 21:25:00,
2013-02-25 15:30:00,27.3,22.8,30.02,NE,37,2.0,5.0,83,0.00,,,0.00,WUHU216DAVISVP2,2013-02-25 21:30:00,
2013-02-25 15:35:00,27.3,23.1,30.03,NNE,32,1.0,5.0,84,0.00,,,0.00,WUHU216DAVISVP2,2013-02-25 21:35:00,
2013-02-25 15:40:00,27.2,23.0,30.03,North,8,2.0,4.0,84,0.00,,,0.00,WUHU216DAVISVP2,2013-02-25 21:40:00,
2013-02-25 15:45:00,27.2,23.0,30.03,North,359,3.0,4.0,84,0.00,,,0.00,WUHU216DAVISVP2,2013-02-25 21:45:00,
2013-02-25 15:50:00,27.1,23.2,30.02,NE,47,2.0,4.0,85,0.00,,,0.00,WUHU216DAVISVP2,2013-02-25 21:50:00,
2013-02-25 15:55:00,26.9,23.0,30.03,NE,56,1.0,5.0,85,0.00,,,0.00,WUHU216DAVISVP2,2013-02-25 21:55:00,
2013-02-25 16:00:00,27.0,23.3,30.02,NNE,27,1.0,5.0,86,0.00,,,0.00,WUHU216DAVISVP2,2013-02-25 22:00:00,
2013-02-25 16:05:00,27.1,23.4,30.02,NE,41,0.0,5.0,86,0.00,,,0.00,WUHU216DAVISVP2,2013-02-25 22:05:00,
2013-02-25 16:10:00,27.0,23.3,30.02,ENE,63,0.0,5.0,86,0.00,,,0.00,WUHU216DAVISVP2,2013-02-25 22:10:00,
2013-02-25 16:15:00,26.9,23.2,30.03,NE,39,1.0,3.0,86,0.00,,,0.00,WUHU216DAVISVP2,2013-02-25 22:15:00,
2013-02-25 16:20:00,26.7,23.0,30.03,East,93,1.0,4.0,86,0.00,,,0.00,WUHU216DAVISVP2,2013-02-25 22:20:00,
2013-02-25 16:25:00,26.5,22.8,30.03,NNE,21,0.0,4.0,86,0.00,,,0.00,WUHU216DAVISVP2,2013-02-25 22:25:00,
2013-02-25 16:30:00,26.3,23.0,30.03,ENE,68,1.0,4.0,87,0.00,,,0.00,WUHU216DAVISVP2,2013-02-25 22:30:00,
2013-02-25 16:35:00,26.2,22.8,30.03,East,86,2.0,4.0,87,0.00,,,0.00,WUHU216DAVISVP2,2013-02-25 22:35:00,
2013-02-25 16:40:00,26.1,22.7,30.03,NE,53,1.0,4.0,87,0.00,,,0.00,WUHU216DAVISVP2,2013-02-25 22:40:00,
2013-02-25 16:45:00,26.0,22.6,30.02,NE,53,1.0,5.0,87,0.00,,,0.00,WUHU216DAVISVP2,2013-02-25 22:45:00,
2013-02-25 16:50:00,26.0,22.9,30.02,NNW,336,1.0,5.0,88,0.00,,,0.00,WUHU216DAVISVP2,2013-02-25 22:50:00,
2013-02-25 16:55:00,25.9,22.8,30.03,NW,311,1.0,5.0,88,0.00,,,0.00,WUHU216DAVISVP2,2013-02-25 22:55:00,
2013-02-25 17:00:00,25.8,22.4,30.03,NE,35,1.0,5.0,87,0.00,,,0.00,WUHU216DAVISVP2,2013-02-25 23:00:00,
2013-02-25 17:05:00,25.8,22.7,30.02,NNE,27,0.0,3.0,88,0.00,,,0.00,WUHU216DAVISVP2,2013-02-25 23:05:00,
2013-02-25 17:10:00,25.8,22.7,30.02,NE,50,0.0,3.0,88,0.00,,,0.00,WUHU216DAVISVP2,2013-02-25 23:10:00,
2013-02-25 17:15:00,25.7,22.6,30.01,ENE,72,1.0,4.0,88,0.00,,,0.00,WUHU216DAVISVP2,2013-02-25 23:15:00,
2013-02-25 17:20:00,25.7,22.6,30.02,NE,46,1.0,4.0,88,0.00,,,0.00,WUHU216DAVISVP2,2013-02-25 23:20:00,
2013-02-25 17:25:00,25.6,22.5,30.02,NE,37,1.0,4.0,88,0.00,,,0.00,WUHU216DAVISVP2,2013-02-25 23:25:00,
2013-02-25 17:30:00,25.4,22.3,30.01,NE,50,4.0,5.0,88,0.00,,,0.00,WUHU216DAVISVP2,2013-02-25 23:30:00,
2013-02-25 17:35:00,25.2,22.1,30.02,North,349,0.0,5.0,88,0.00,,,0.00,WUHU216DAVISVP2,2013-02-25 23:35:00,
2013-02-25 17:40:00,25.1,22.3,30.01,East,81,1.0,5.0,89,0.00,,,0.00,WUHU216DAVISVP2,2013-02-25 23:40:00,
2013-02-25 17:45:00,25.1,22.3,30.01,NE,47,1.0,5.0,89,0.00,,,0.00,WUHU216DAVISVP2,2013-02-25 23:45:00,
2013-02-25 17:50:00,24.9,22.1,30.02,East,81,2.0,5.0,89,0.00,,,0.00,WUHU216DAVISVP2,2013-02-25 23:50:00,
2013-02-25 17:55:00,24.8,22.0,30.02,NE,41,2.0,7.0,89,0.00,,,0.00,WUHU216DAVISVP2,2013-02-25 23:55:00,
2013-02-25 18:00:00,24.6,22.0,30.02,East,88,0.0,7.0,90,0.00,,,0.00,WUHU216DAVISVP2,2013-02-26 00:00:00,
2013-02-25 18:05:00,24.7,22.1,30.02,ESE,106,0.0,7.0,90,0.00,,,0.00,WUHU216DAVISVP2,2013-02-26 00:05:00,
2013-02-25 18:10:00,24.7,22.1,30.02,East,88,1.0,4.0,90,0.00,,,0.00,WUHU216DAVISVP2,2013-02-26 00:10:00,
2013-02-25 18:15:00,24.5,21.9,30.02,NE,38,0.0,4.0,90,0.00,,,0.00,WUHU216DAVISVP2,2013-02-26 00:15:00,
2013-02-25 18:20:00,24.4,21.8,30.02,ENE,75,0.0,4.0,90,0.00,,,0.00,WUHU216DAVISVP2,2013-02-26 00:20:00,
2013-02-25 18:25:00,24.5,21.9,30.02,NNE,32,0.0,4.0,90,0.00,,,0.00,WUHU216DAVISVP2,2013-02-26 00:25:00,
2013-02-25 18:30:00,24.5,22.2,30.02,ENE,59,0.0,4.0,91,0.00,,,0.00,WUHU216DAVISVP2,2013-02-26 00:30:00,
2013-02-25 18:35:00,24.3,22.0,30.02,NE,41,1.0,4.0,91,0.00,,,0.00,WUHU216DAVISVP2,2013-02-26 00:35:00,
2013-02-25 18:40:00,24.2,21.9,30.02,ENE,71,0.0,4.0,91,0.00,,,0.00,WUHU216DAVISVP2,2013-02-26 00:40:00,
2013-02-25 18:45:00,24.3,22.0,30.02,East,94,2.0,4.0,91,0.00,,,0.00,WUHU216DAVISVP2,2013-02-26 00:45:00,
2013-02-25 18:50:00,24.2,21.9,30.02,NE,53,2.0,4.0,91,0.00,,,0.00,WUHU216DAVISVP2,2013-02-26 00:50:00,
2013-02-25 18:55:00,24.0,21.7,30.02,ENE,76,2.0,4.0,91,0.00,,,0.00,WUHU216DAVISVP2,2013-02-26 00:55:00,
2013-02-25 19:00:00,23.9,21.6,30.03,East,80,5.0,6.0,91,0.00,,,0.00,WUHU216DAVISVP2,2013-02-26 01:00:00,
2013-02-25 19:05:00,23.9,21.9,30.03,ESE,108,1.0,6.0,92,0.00,,,0.00,WUHU216DAVISVP2,2013-02-26 01:05:00,
2013-02-25 19:10:00,23.9,21.9,30.03,ESE,121,0.0,6.0,92,0.00,,,0.00,WUHU216DAVISVP2,2013-02-26 01:10:00,
2013-02-25 19:15:00,24.0,22.0,30.02,ESE,104,0.0,6.0,92,0.00,,,0.00,WUHU216DAVISVP2,2013-02-26 01:15:00,
2013-02-25 19:20:00,24.2,22.2,30.02,East,88,1.0,4.0,92,0.00,,,0.00,WUHU216DAVISVP2,2013-02-26 01:20:00,
2013-02-25 19:25:00,24.2,22.2,30.03,ESE,103,1.0,4.0,92,0.00,,,0.00,WUHU216DAVISVP2,2013-02-26 01:25:00,
2013-02-25 19:30:00,24.4,22.4,30.03,ESE,117,1.0,4.0,92,0.00,,,0.00,WUHU216DAVISVP2,2013-02-26 01:30:00,
2013-02-25 19:35:00,24.5,22.5,30.02,ENE,71,1.0,6.0,92,0.00,,,0.00,WUHU216DAVISVP2,2013-02-26 01:35:00,
2013-02-25 19:40:00,24.6,22.6,30.02,ESE,122,0.0,6.0,92,0.00,,,0.00,WUHU216DAVISVP2,2013-02-26 01:40:00,
2013-02-25 19:45:00,24.6,22.6,30.02,SE,124,0.0,6.0,92,0.00,,,0.00,WUHU216DAVISVP2,2013-02-26 01:45:00,
2013-02-25 19:50:00,24.7,22.7,30.02,NNE,25,0.0,6.0,92,0.00,,,0.00,WUHU216DAVISVP2,2013-02-26 01:50:00,
2013-02-25 19:55:00,24.7,22.7,30.02,SE,135,0.0,2.0,92,0.00,,,0.00,WUHU216DAVISVP2,2013-02-26 01:55:00,
2013-02-25 20:00:00,24.8,22.8,30.01,NE,54,0.0,3.0,92,0.00,,,0.00,WUHU216DAVISVP2,2013-02-26 02:00:00,
2013-02-25 20:05:00,24.8,22.8,30.02,SSW,212,0.0,3.0,92,0.00,,,0.00,WUHU216DAVISVP2,2013-02-26 02:05:00,
2013-02-25 20:10:00,25.0,23.0,30.01,NE,37,1.0,3.0,92,0.00,,,0.00,WUHU216DAVISVP2,2013-02-26 02:10:00,
2013-02-25 20:16:00,24.9,22.9,30.00,NE,44,0.0,3.0,92,0.00,,,0.00,WUHU216DAVISVP2,2013-02-26 02:16:00,
2013-02-25 20:21:00,24.9,22.9,30.02,SSW,209,0.0,3.0,92,0.00,,,0.00,WUHU216DAVISVP2,2013-02-26 02:21:00,
2013-02-25 20:26:00,25.0,23.0,30.00,NE,42,1.0,3.0,92,0.00,,,0.00,WUHU216DAVISVP2,2013-02-26 02:26:00,
2013-02-25 20:30:00,25.0,23.0,30.00,ESE,108,0.0,3.0,92,0.00,,,0.00,WUHU216DAVISVP2,2013-02-26 02:30:00,
2013-02-25 20:35:00,25.0,23.0,30.01,SE,145,0.0,3.0,92,0.00,,,0.00,WUHU216DAVISVP2,2013-02-26 02:35:00,
2013-02-25 20:40:00,25.1,23.3,30.00,ENE,58,2.0,5.0,93,0.00,,,0.00,WUHU216DAVISVP2,2013-02-26 02:40:00,
2013-02-25 20:45:00,25.1,23.3,30.00,East,79,1.0,5.0,93,0.00,,,0.00,WUHU216DAVISVP2,2013-02-26 02:45:00,
2013-02-25 20:50:00,25.2,23.4,30.00,ESE,108,0.0,5.0,93,0.00,,,0.00,WUHU216DAVISVP2,2013-02-26 02:50:00,
2013-02-25 20:55:00,25.1,23.4,29.99,ESE,105,1.0,5.0,93,0.00,,,0.00,WUHU216DAVISVP2,2013-02-26 02:55:00,
2013-02-25 21:00:00,25.2,23.4,29.99,ESE,105,0.0,3.0,93,0.00,,,0.00,WUHU216DAVISVP2,2013-02-26 03:00:00,
2013-02-25 21:05:00,25.3,23.6,29.99,ESE,120,1.0,3.0,93,0.00,,,0.00,WUHU216DAVISVP2,2013-02-26 03:05:00,
2013-02-25 21:10:00,25.3,23.5,29.99,ENE,59,2.0,3.0,93,0.00,,,0.00,WUHU216DAVISVP2,2013-02-26 03:10:00,
2013-02-25 21:15:00,25.3,23.5,29.99,ENE,69,1.0,5.0,93,0.00,,,0.00,WUHU216DAVISVP2,2013-02-26 03:15:00,
2013-02-25 21:20:00,25.3,23.5,29.99,ENE,63,1.0,5.0,93,0.00,,,0.00,WUHU216DAVISVP2,2013-02-26 03:20:00,
2013-02-25 21:25:00,25.3,23.5,29.98,East,84,0.0,5.0,93,0.00,,,0.00,WUHU216DAVISVP2,2013-02-26 03:25:00,
2013-02-25 21:30:00,25.4,23.9,29.99,ENE,60,1.0,5.0,94,0.00,,,0.00,WUHU216DAVISVP2,2013-02-26 03:30:00,
2013-02-25 21:36:00,25.3,23.5,29.98,East,86,0.0,4.0,93,0.00,,,0.00,WUHU216DAVISVP2,2013-02-26 03:36:00,
2013-02-25 21:41:00,25.2,23.4,29.98,East,96,0.0,4.0,93,0.00,,,0.00,WUHU216DAVISVP2,2013-02-26 03:41:00,
2013-02-25 21:46:00,25.1,23.3,29.98,NNE,33,1.0,3.0,93,0.00,,,0.00,WUHU216DAVISVP2,2013-02-26 03:46:00,
2013-02-25 21:50:00,25.1,23.3,29.98,ENE,57,1.0,4.0,93,0.00,,,0.00,WUHU216DAVISVP2,2013-02-26 03:50:00,
2013-02-25 21:56:00,25.0,23.2,29.98,ESE,110,0.0,4.0,93,0.00,,,0.00,WUHU216DAVISVP2,2013-02-26 03:56:00,
2013-02-25 22:00:00,24.9,23.1,29.98,NNW,347,0.0,4.0,93,0.00,,,0.00,WUHU216DAVISVP2,2013-02-26 04:00:00,
2013-02-25 22:05:00,25.0,23.2,29.98,NE,35,0.0,4.0,93,0.00,,,0.00,WUHU216DAVISVP2,2013-02-26 04:05:00,
2013-02-25 22:10:00,24.9,23.1,29.98,ENE,57,1.0,3.0,93,0.00,,,0.00,WUHU216DAVISVP2,2013-02-26 04:10:00,
2013-02-25 22:16:00,24.9,23.1,29.97,NNE,32,2.0,3.0,93,0.00,,,0.00,WUHU216DAVISVP2,2013-02-26 04:16:00,
2013-02-25 22:20:00,24.9,23.1,29.97,ENE,69,0.0,3.0,93,0.00,,,0.00,WUHU216DAVISVP2,2013-02-26 04:20:00,
2013-02-25 22:26:00,24.8,23.1,29.97,East,86,0.0,2.0,93,0.00,,,0.00,WUHU216DAVISVP2,2013-02-26 04:26:00,
2013-02-25 22:30:00,24.9,23.4,29.97,NE,45,0.0,5.0,94,0.00,,,0.00,WUHU216DAVISVP2,2013-02-26 04:30:00,
2013-02-25 22:31:00,24.9,23.4,29.97,East,84,2.0,5.0,94,0.00,,,0.00,WUHU216DAVISVP2,2013-02-26 04:31:00,
2013-02-25 22:36:00,24.9,23.4,29.98,ENE,70,0.0,5.0,94,0.00,,,0.00,WUHU216DAVISVP2,2013-02-26 04:36:00,
2013-02-25 22:41:00,25.0,23.5,29.97,ENE,64,1.0,5.0,94,0.00,,,0.00,WUHU216DAVISVP2,2013-02-26 04:41:00,
2013-02-25 22:45:00,24.9,23.4,29.97,ESE,121,0.0,5.0,94,0.00,,,0.00,WUHU216DAVISVP2,2013-02-26 04:45:00,
2013-02-25 22:51:00,24.9,23.4,29.97,East,83,1.0,4.0,94,0.00,,,0.00,WUHU216DAVISVP2,2013-02-26 04:51:00,
2013-02-25 22:55:00,24.9,23.4,29.97,East,82,0.0,4.0,94,0.00,,,0.00,WUHU216DAVISVP2,2013-02-26 04:55:00,
2013-02-25 23:00:00,24.9,23.4,29.97,SE,133,0.0,4.0,94,0.00,,,0.00,WUHU216DAVISVP2,2013-02-26 05:00:00,
2013-02-25 23:05:00,24.9,23.4,29.97,ENE,72,2.0,4.0,94,0.00,,,0.00,WUHU216DAVISVP2,2013-02-26 05:05:00,
2013-02-25 23:10:00,24.9,23.4,29.97,ENE,71,1.0,3.0,94,0.00,,,0.00,WUHU216DAVISVP2,2013-02-26 05:10:00,
2013-02-25 23:15:00,24.9,23.4,29.97,NE,43,0.0,3.0,94,0.00,,,0.00,WUHU216DAVISVP2,2013-02-26 05:15:00,
2013-02-25 23:20:00,24.8,23.3,29.97,East,92,0.0,3.0,94,0.00,,,0.00,WUHU216DAVISVP2,2013-02-26 05:20:00,
2013-02-25 23:25:00,24.8,23.3,29.97,NE,56,1.0,3.0,94,0.00,,,0.00,WUHU216DAVISVP2,2013-02-26 05:25:00,
2013-02-25 23:30:00,24.8,23.3,29.97,East,86,2.0,4.0,94,0.00,,,0.00,WUHU216DAVISVP2,2013-02-26 05:30:00,
2013-02-25 23:35:00,24.8,23.3,29.97,ENE,75,5.0,6.0,94,0.00,,,0.00,WUHU216DAVISVP2,2013-02-26 05:35:00,
2013-02-25 23:40:00,24.8,23.3,29.98,East,87,1.0,6.0,94,0.00,,,0.00,WUHU216DAVISVP2,2013-02-26 05:40:00,
2013-02-25 23:45:00,24.8,23.3,29.97,ESE,109,2.0,6.0,94,0.00,,,0.00,WUHU216DAVISVP2,2013-02-26 05:45:00,
2013-02-25 23:50:00,24.8,23.3,29.98,ESE,123,2.0,6.0,94,0.00,,,0.00,WUHU216DAVISVP2,2013-02-26 05:50:00,
2013-02-25 23:55:00,24.8,23.3,29.98,East,90,1.0,4.0,94,0.00,,,0.00,WUHU216DAVISVP2,2013-02-26 05:55:00,